Tracking 29892 objects as of 21-Nov-2024
HD Live streaming from Space Station
objects crossing your sky now

STARLINK-30263

Track STARLINK-30263 now!
10-day predictions
STARLINK-30263 is classified as:


NORAD ID: 57642
Int'l Code: 2023-122L
Perigee: 565.2 km
Apogee: 567.2 km
Inclination: 43.0 °
Period: 95.8 minutes
Semi major axis: 6937 km
RCS: Unknown
Launch date: August 17, 2023
Source: United States (US)
Launch site: AIR FORCE EASTERN TEST RANGE (AFETR)
Your satellite tracking list
Your tracking list is empty




NASA's NSSDC Master Catalog

Two Line Element Set (TLE):
1 57642U 23122L   24325.91162273 -.00000849  00000-0 -47781-4 0  9995
2 57642  43.0025 148.9865 0001447 270.7961  89.2716 15.02536633 70913
Source of the keplerian elements: AFSPC